IK3ZGB Weather Reports


Display with metric or nautical units.
time (UTC)temp
F
wind
direction
speed
MPH
gust
MPH
rain 1hr
in
rain 24hr
in
rain mn
in
humidity
%
barometer
mb
20260831000040 76 0.0 0.0 0.00 0.00 0.00 68 1012.2
20260830235042 76 0.0 0.0 0.00 0.00 0.00 68 1012.0
20260830234041 77 0.0 0.0 0.00 0.00 0.00 67 1012.1
20260830233041 77 0.0 0.0 0.00 0.00 0.00 67 1012.1
20260830232042 77 0.0 0.0 0.00 0.00 0.00 66 1012.1
20260830231041 77 0.0 0.0 0.00 0.00 0.00 67 1012.1
20260830230042 77 0.0 0.0 0.00 0.00 0.00 67 1012.1
20260830225041 77 0.0 0.0 0.00 0.00 0.00 68 1011.9
20260830224040 77 0.0 0.0 0.00 0.00 0.00 67 1012.3
20260830223042 77 0.0 0.0 0.00 0.00 0.00 67 1011.9
20260830222041 78 0.0 0.0 0.00 0.00 0.00 67 1012.3
20260830221041 78 0.0 0.0 0.00 0.00 0.00 67 1012.3
20260830220041 78 0.0 0.0 0.00 0.00 0.00 67 1012.0
20260830215041 78 0.0 0.0 0.00 0.00 0.00 67 1012.2
20260830214040 78 0.0 0.0 0.00 0.00 0.00 67 1011.9
20260830213041 78 0.0 0.0 0.00 0.00 0.00 67 1012.0
20260830212041 78 0.0 0.0 0.00 0.00 0.00 66 1011.8
20260830211040 78 0.0 0.0 0.00 0.00 0.00 66 1011.9
20260830210041 79 0.0 0.0 0.00 0.00 0.00 66 1011.9
20260830205041 78 0.0 0.0 0.00 0.00 0.00 66 1011.7
20260830204042 79 0.0 0.0 0.00 0.00 0.00 66 1011.5
20260830203042 79 0.0 0.0 0.00 0.00 0.00 65 1011.5
20260830202042 80 0.0 0.0 0.00 0.00 0.00 65 1011.4
20260830201041 80 0.0 0.0 0.00 0.00 0.00 65 1011.8
20260830200042 80 0.0 0.0 0.00 0.00 0.00 65 1011.3
20260830195041 80 0.0 0.0 0.00 0.00 0.00 64 1011.1
20260830194042 80 0.0 0.0 0.00 0.00 0.00 64 1011.1
20260830193041 81 0.0 0.0 0.00 0.00 0.00 63 1011.2
20260830192042 81 0.0 0.0 0.00 0.00 0.00 63 1011.2
20260830191041 81 0.0 0.0 0.00 0.00 0.00 63 1011.1
20260830190041 82 0.0 0.0 0.00 0.00 0.00 63 1011.1
20260830185042 81 0.0 0.0 0.00 0.00 0.00 63 1011.0
20260830184041 82 0.0 0.0 0.00 0.00 0.00 62 1010.9
20260830183042 82 0.0 0.0 0.00 0.00 0.00 62 1010.6
20260830182041 83 0.0 0.0 0.00 0.00 0.00 63 1010.3
20260830181041 83 0.0 0.0 0.00 0.00 0.00 62 1010.1
20260830180041 84 0.0 0.0 0.00 0.00 0.00 61 1009.6
20260830175042 85 0.0 0.0 0.00 0.00 0.00 60 1009.7
20260830174040 85 0.0 0.0 0.00 0.00 0.00 59 1009.5
20260830173041 86 0.0 0.0 0.00 0.00 0.00 59 1009.6
20260830172042 86 0.0 0.0 0.00 0.00 0.00 58 1009.5
20260830171042 86 0.0 0.0 0.00 0.00 0.00 57 1009.4
20260830170041 87 0.0 0.0 0.00 0.00 0.00 57 1009.7
20260830165042 87 0.0 0.0 0.00 0.00 0.00 54 1009.7
20260830164041 88 0.0 0.0 0.00 0.00 0.00 54 1009.6
20260830163042 88 0.0 0.0 0.00 0.00 0.00 54 1009.9
20260830162042 88 0.0 0.0 0.00 0.00 0.00 54 1009.9
20260830161041 88 0.0 0.0 0.00 0.00 0.00 54 1009.9
20260830160042 88 0.0 0.0 0.00 0.00 0.00 54 1010.1
20260830155042 88 0.0 0.0 0.00 0.00 0.00 54 1010.0
20260830154041 88 0.0 0.0 0.00 0.00 0.00 54 1010.0
20260830153041 88 0.0 0.0 0.00 0.00 0.00 54 1010.0
20260830152042 88 0.0 0.0 0.00 0.00 0.00 54 1009.8
20260830151040 89 0.0 0.0 0.00 0.00 0.00 55 1010.0
20260830150042 89 0.0 0.0 0.00 0.00 0.00 55 1010.0
20260830145041 89 0.0 0.0 0.00 0.00 0.00 54 1009.9
20260830144041 89 0.0 0.0 0.00 0.00 0.00 55 1010.2
20260830143042 88 0.0 0.0 0.00 0.00 0.00 54 1010.2
20260830142041 89 0.0 0.0 0.00 0.00 0.00 55 1010.5
20260830141040 89 0.0 0.0 0.00 0.00 0.00 55 1010.2
20260830140042 89 0.0 0.0 0.00 0.00 0.00 55 1010.2
20260830135043 89 0.0 0.0 0.00 0.00 0.00 54 1010.6
20260830134041 89 0.0 0.0 0.00 0.00 0.00 56 1010.3
20260830133042 89 0.0 0.0 0.00 0.00 0.00 56 1010.6
20260830132041 88 0.0 0.0 0.00 0.00 0.00 56 1010.5
20260830131041 89 0.0 0.0 0.00 0.00 0.00 57 1010.6
20260830130041 89 0.0 0.0 0.00 0.00 0.00 56 1010.6
20260830125042 88 0.0 0.0 0.00 0.00 0.00 56 1010.8
20260830124041 88 0.0 0.0 0.00 0.00 0.00 54 1011.0
20260830123042 89 0.0 0.0 0.00 0.00 0.00 56 1011.0
20260830122041 89 0.0 0.0 0.00 0.00 0.00 55 1010.9
20260830121040 89 0.0 0.0 0.00 0.00 0.00 55 1011.2
20260830120042 89 0.0 0.0 0.00 0.00 0.00 55 1011.1
20260830115041 89 0.0 0.0 0.00 0.00 0.00 57 1011.2
20260830114042 88 0.0 0.0 0.00 0.00 0.00 55 1011.1
20260830113041 88 0.0 0.0 0.00 0.00 0.00 56 1011.1
20260830112042 88 0.0 0.0 0.00 0.00 0.00 56 1011.2
20260830111042 89 0.0 0.0 0.00 0.00 0.00 57 1011.4
20260830110042 88 0.0 0.0 0.00 0.00 0.00 56 1011.4
20260830105041 89 0.0 0.0 0.00 0.00 0.00 56 1011.5
20260830104040 89 0.0 0.0 0.00 0.00 0.00 57 1011.6
20260830103043 90 0.0 0.0 0.00 0.00 0.00 56 1011.9
20260830102042 88 0.0 0.0 0.00 0.00 0.00 56 1011.9
20260830101041 89 0.0 0.0 0.00 0.00 0.00 57 1012.1
20260830100041 90 0.0 0.0 0.00 0.00 0.00 59 1012.1
20260830095041 90 0.0 0.0 0.00 0.00 0.00 58 1012.3
20260830094042 89 0.0 0.0 0.00 0.00 0.00 58 1012.3
20260830093041 90 0.0 0.0 0.00 0.00 0.00 59 1012.4
20260830092041 90 0.0 0.0 0.00 0.00 0.00 60 1012.7
20260830091040 86 0.0 0.0 0.00 0.00 0.00 58 1012.9
20260830090042 87 0.0 0.0 0.00 0.00 0.00 59 1012.8
20260830085042 87 0.0 0.0 0.00 0.00 0.00 59 1012.8
20260830084041 88 0.0 0.0 0.00 0.00 0.00 58 1013.0
20260830083042 88 0.0 0.0 0.00 0.00 0.00 60 1013.0
20260830082042 86 0.0 0.0 0.00 0.00 0.00 59 1013.0
20260830081040 87 0.0 0.0 0.00 0.00 0.00 60 1012.8
20260830080042 87 0.0 0.0 0.00 0.00 0.00 60 1012.8
20260830075042 88 0.0 0.0 0.00 0.00 0.00 61 1012.9
20260830074041 88 0.0 0.0 0.00 0.00 0.00 61 1012.8
20260830073041 87 0.0 0.0 0.00 0.00 0.00 62 1012.8
20260830072040 85 0.0 0.0 0.00 0.00 0.00 62 1013.0
20260830071040 86 0.0 0.0 0.00 0.00 0.00 62 1013.0
20260830070041 84 0.0 0.0 0.00 0.00 0.00 63 1013.3
20260830065041 83 0.0 0.0 0.00 0.00 0.00 64 1013.1
20260830064041 82 0.0 0.0 0.00 0.00 0.00 65 1013.0
20260830063042 82 0.0 0.0 0.00 0.00 0.00 66 1013.1
20260830062042 82 0.0 0.0 0.00 0.00 0.00 68 1013.3
20260830061041 81 0.0 0.0 0.00 0.00 0.00 68 1013.1
20260830060043 82 0.0 0.0 0.00 0.00 0.00 68 1013.1
20260830055042 86 0.0 0.0 0.00 0.00 0.00 70 1013.1
20260830054040 84 0.0 0.0 0.00 0.00 0.00 73 1013.5
20260830053041 76 0.0 0.0 0.00 0.00 0.00 76 1013.4
20260830052042 74 0.0 0.0 0.00 0.00 0.00 76 1013.2
20260830051040 73 0.0 0.0 0.00 0.00 0.00 77 1013.3
20260830050041 73 0.0 0.0 0.00 0.00 0.00 77 1013.5
20260830045042 73 0.0 0.0 0.00 0.00 0.00 77 1013.3
20260830044040 72 0.0 0.0 0.00 0.00 0.00 77 1013.1
20260830043041 72 0.0 0.0 0.00 0.00 0.00 77 1013.0
20260830042042 73 0.0 0.0 0.00 0.00 0.00 78 1013.1
20260830041041 72 0.0 0.0 0.00 0.00 0.00 78 1013.0
20260830040041 73 0.0 0.0 0.00 0.00 0.00 77 1012.8
20260830035042 72 0.0 0.0 0.00 0.00 0.00 77 1012.9
20260830034041 73 0.0 0.0 0.00 0.00 0.00 77 1012.7
20260830033041 73 0.0 0.0 0.00 0.00 0.00 77 1012.6
20260830032042 73 0.0 0.0 0.00 0.00 0.00 77 1012.8
20260830031040 73 0.0 0.0 0.00 0.00 0.00 77 1012.9
20260830030041 73 0.0 0.0 0.00 0.00 0.00 77 1012.5
20260830025041 73 0.0 0.0 0.00 0.00 0.00 77 1012.7
20260830024041 73 0.0 0.0 0.00 0.00 0.00 76 1012.7
20260830023041 74 0.0 0.0 0.00 0.00 0.00 76 1013.0
20260830022042 73 0.0 0.0 0.00 0.00 0.00 76 1012.7
20260830021040 74 0.0 0.0 0.00 0.00 0.00 76 1012.8
20260830020041 74 0.0 0.0 0.00 0.00 0.00 76 1013.1
20260830015041 74 0.0 0.0 0.00 0.00 0.00 75 1013.2
20260830014040 74 0.0 0.0 0.00 0.00 0.00 74 1013.3
20260830013042 75 0.0 0.0 0.00 0.00 0.00 74 1013.0
20260830012042 75 0.0 0.0 0.00 0.00 0.00 74 1013.0
20260830011040 76 0.0 0.0 0.00 0.00 0.00 73 1013.1
20260830010042 75 0.0 0.0 0.00 0.00 0.00 73 1012.8
20260830005042 76 0.0 0.0 0.00 0.00 0.00 72 1012.8
20260830004041 76 0.0 0.0 0.00 0.00 0.00 72 1012.9
20260830003042 76 0.0 0.0 0.00 0.00 0.00 72 1012.9
20260830002042 76 0.0 0.0 0.00 0.00 0.00 72 1012.9
20260830001041 76 0.0 0.0 0.00 0.00 0.00 72 1013.0